Wind_Speed
25 25 25 28 31 34 35 38 37 38 37 39 41 38 43 42 42 42 41 42 41 39 36 34 37 36 34 36 39 39 39 37 28 30 33 33 32 31 32 31 29 29 29
31 33 34 35 37 38 43 31 44 47 44 44 41 44 44 44 45 37 30 31 30 34 35 37 38 39 37 36 41 41 38 44 42 35 39 40 38 39 37 38 36 35 31
39 39 41 42 42 43 46 48 48 48 47 46 45 47 46 42 38 37 37 44 40 41 40 42 43 47 48 52 50 49 53 48 48 47 46 48 45 44 44 43 43 42 41
38 40 43 45 44 45 45 46 49 49 50 48 46 45 43 42 46 48 44 44 44 44 44 47 50 53 54 53 53 56 57 55 55 55 52 50 53 51 46 46 48 48 47
47 47 47 51 51 52 53 52 51 47 50 51 49 48 48 49 50 50 51 51 51 51 52 53 55 57 58 60 62 62 62 61 61 61 61 58 56 59 61 59 57 55 54
50 54 54 54 53 52 51 51 52 51 51 49 48 50 50 49 50 52 53 53 54 55 56 57 58 60 62 64 64 64 66 67 68 69 67 66 65 65 63 63 62 61 61
47 48 46 41 35 39 42 41 40 40 50 55 53 52 52 53 53 54 54 56 56 56 57 60 61 63 67 69 68 67 68 70 72 73 72 72 72 71 72 68 67 67 65
49 48 49 48 48 48 52 56 57 59 54 54 53 52 52 53 52 52 52 52 54 57 60 63 63 65 67 69 68 69 70 71 73 73 71 71 74 76 77 78 75 72 71
47 46 46 48 50 51 52 53 54 53 54 54 54 54 52 51 51 51 52 53 55 57 60 63 65 67 69 71 70 68 64 62 64 67 69 71 74 76 77 79 79 80 76
45 47 48 49 50 51 51 51 52 51 51 51 52 49 47 47 48 51 53 54 55 58 61 61 60 61 61 59 60 58 54 55 53 53 55 57 60 64 72 79 82 84 81
42 44 47 51 54 55 53 51 50 48 47 47 47 46 47 48 49 50 51 54 55 53 52 54 55 57 56 53 51 46 43 47 49 48 52 51 56 56 58 66 72 77 82
38 38 41 47 51 52 52 48 45 45 45 44 44 43 44 45 47 45 43 43 43 45 47 50 50 49 49 46 45 42 42 38 40 45 47 51 55 57 59 63 67 73 79
30 34 39 39 36 35 35 37 38 36 35 34 33 36 39 39 38 36 34 35 35 33 35 36 37 42 41 43 38 33 31 34 37 39 42 49 59 62 60 65 70 72 72
30 30 33 36 33 30 28 28 30 31 30 30 32 33 33 32 27 28 27 27 27 28 28 28 29 33 36 42 36 35 34 35 36 36 41 54 55 60 62 61 64 67 72
23 23 25 28 28 26 25 24 25 25 26 27 26 24 25 22 22 22 22 26 25 24 25 26 26 27 31 30 33 41 41 38 35 39 43 47 50 53 55 54 55 61 63
22 22 22 23 23 22 19 16 16 17 20 20 18 19 20 20 21 24 24 25 25 27 31 30 31 30 30 29 30 29 26 32 39 41 41 41 43 45 42 44 45 48 51
22 21 22 22 22 20 19 18 17 16 14 19 22 24 23 24 24 24 27 28 29 30 32 33 35 34 32 32 30 31 31 29 29 38 38 36 35 36 34 26 27 32 36
18 17 18 18 18 18 18 17 17 17 19 20 26 28 27 29 32 31 30 31 32 34 35 32 31 32 33 35 36 34 35 37 28 32 35 32 31 40 26 20 20 23 27
21 22 22 22 22 21 22 23 22 21 21 22 21 24 27 29 33 34 34 34 35 34 36 33 28 30 32 32 34 35 34 36 38 36 32 35 25 20 21 17 17 21 27
23 24 23 23 22 22 22 23 23 23 24 26 26 27 27 28 31 35 37 38 36 33 32 33 35 33 31 32 32 34 35 31 31 34 35 30 31 19 20 20 20 21 22
19 21 22 23 23 22 22 22 22 21 22 25 27 28 28 27 30 33 36 36 34 33 37 34 35 31 31 32 32 32 34 37 36 31 32 31 26 25 24 25 27 28 25
18 20 23 23 24 24 25 26 27 26 27 28 30 28 29 30 34 35 37 38 37 37 36 36 35 36 33 34 36 35 33 32 33 33 32 30 30 26 23 25 25 21 28
20 23 24 24 26 27 26 27 28 29 29 28 29 28 27 29 32 33 34 36 39 40 40 40 39 38 38 36 36 36 34 37 35 29 28 30 28 28 23 12 7 18 19
23 23 25 25 28 29 28 30 32 33 34 35 35 36 38 38 39 40 41 41 41 42 42 41 40 42 41 40 38 38 36 37 36 38 29 26 29 30 28 20 16 7 11
22 24 26 28 30 31 31 32 34 35 36 38 41 44 45 47 47 47 45 47 48 50 46 43 42 42 43 43 40 38 39 36 38 38 38 30 23 26 29 25 20 10 16
28 29 30 31 33 35 38 40 42 41 41 40 45 46 46 49 53 55 56 55 53 51 48 47 46 43 44 44 41 39 41 40 40 46 41 38 32 27 26 27 25 22 18
Wind_Direction
256 264 265 269 268 271 272 274 270 268 270 275 280 280 282 275 284 276 273 277 281 274 270 272 266 266 274 274 264 266 268 267 256 253 262 267 267 268 270 269 265 262 263
283 291 288 284 283 283 276 275 281 282 281 279 279 281 284 281 282 281 280 275 267 272 276 274 262 260 265 273 267 264 269 266 262 256 264 264 262 262 262 266 268 267 261
294 291 291 291 287 282 277 275 274 277 280 280 280 281 281 278 274 269 278 283 280 279 274 277 273 268 269 270 270 267 272 270 269 268 257 259 257 259 260 262 263 264 265
295 292 289 285 280 278 279 277 277 276 276 278 280 279 274 274 272 280 284 285 282 281 274 270 270 270 273 273 271 273 274 273 272 271 266 260 256 253 251 255 259 261 260
291 285 281 279 281 283 283 280 277 274 275 278 281 281 280 278 277 277 279 280 280 278 277 276 276 275 273 272 272 274 274 274 273 272 271 266 261 257 259 258 257 254 255
287 286 285 283 280 279 280 279 279 270 271 276 275 276 277 278 278 277 276 275 274 274 274 275 276 277 275 274 272 272 272 272 271 271 268 267 265 262 260 259 257 253 251
288 286 282 279 271 273 268 266 264 268 278 279 278 279 279 278 278 278 279 278 279 280 280 281 281 281 280 279 278 277 275 273 271 267 266 266 264 262 259 257 256 257 252
288 285 284 282 275 273 268 270 271 274 278 279 280 281 282 282 281 281 281 282 283 283 283 282 281 280 279 279 279 277 275 272 270 269 267 263 261 260 259 257 255 252 253
289 288 287 284 282 280 279 278 277 277 279 280 280 281 282 282 283 282 281 281 279 278 277 278 278 279 279 279 279 279 278 275 271 269 266 263 261 259 257 256 256 253 248
290 289 288 286 284 282 279 278 276 275 274 275 277 279 280 281 280 280 281 282 281 282 284 286 287 286 285 287 285 282 279 276 274 273 270 267 266 265 263 259 256 253 250
287 289 292 291 285 278 275 272 271 272 272 274 276 277 278 278 279 282 285 287 288 290 291 291 290 288 287 287 287 283 283 275 267 268 266 272 270 265 263 262 261 260 255
296 296 300 295 284 278 271 267 266 267 268 270 273 274 276 280 283 287 288 288 291 293 292 290 291 290 288 289 292 291 285 279 270 273 273 277 275 272 267 262 262 261 258
314 316 320 316 305 291 277 268 266 266 269 271 273 277 281 284 285 286 286 288 289 290 304 310 304 296 293 295 295 290 285 279 282 286 291 295 291 286 277 268 260 255 254
312 316 320 321 314 302 292 280 270 268 268 273 276 277 277 281 283 282 285 286 292 299 313 314 316 311 307 301 295 294 294 293 284 289 296 298 289 286 281 272 264 258 254
315 323 327 322 320 314 305 294 284 278 279 278 278 278 279 286 287 284 286 294 296 300 309 318 319 329 332 323 311 303 294 291 284 298 304 301 299 293 285 276 267 260 253
319 326 326 322 320 319 316 310 299 293 291 292 297 296 293 302 303 300 300 302 304 305 313 320 325 327 331 335 329 317 310 294 296 303 305 312 314 305 293 280 267 260 251
320 322 319 316 314 316 316 308 305 308 319 322 320 316 313 307 301 305 308 312 314 313 313 316 317 319 321 325 330 333 327 319 301 299 314 319 321 316 300 287 268 258 245
336 336 330 330 332 332 327 323 321 317 316 313 309 312 314 314 314 311 309 311 312 313 315 316 314 317 319 319 321 329 335 340 324 318 311 318 325 315 314 293 273 246 231
321 322 321 322 323 323 319 318 317 319 319 317 311 308 311 310 309 308 308 308 306 309 311 312 314 316 318 319 320 324 333 332 337 326 320 314 325 328 310 302 271 240 237
320 322 325 327 329 329 326 324 324 325 323 321 318 315 314 311 305 304 304 304 305 306 306 309 310 310 312 316 319 318 321 329 327 329 330 314 305 308 301 289 280 266 260
328 331 330 330 330 328 327 328 328 327 326 325 323 320 318 315 310 307 303 302 302 303 302 303 304 299 304 308 314 316 318 319 321 322 327 327 312 296 282 316 271 265 270
334 335 332 332 330 327 327 326 323 319 316 320 320 317 315 316 314 310 307 306 304 302 298 296 295 292 293 299 305 307 312 310 311 317 316 318 319 314 301 303 305 267 259
333 330 329 330 328 324 320 323 323 319 316 318 314 310 311 315 311 310 311 310 307 303 300 300 299 292 291 293 300 304 309 313 309 306 310 307 308 310 320 301 330 280 271
329 327 328 328 322 322 318 312 314 314 314 314 313 310 306 306 308 309 308 309 305 304 302 299 294 291 291 291 294 299 301 306 307 305 306 306 303 305 310 308 295 287 255
324 325 323 323 322 320 319 317 316 317 316 314 312 310 307 306 306 307 307 311 311 307 301 296 294 290 287 288 290 292 293 299 304 301 299 296 300 300 302 303 298 264 255
318 322 323 322 320 322 325 325 321 317 315 316 317 310 307 311 311 308 306 307 309 304 301 297 290 283 281 283 285 287 289 289 294 296 290 289 290 290 290 293 298 293 286
Height
5884 5886 5888 5888 5889 5890 5890 5889 5887 5886 5886 5886 5885 5886 5884 5884 5883 5882 5878 5878 5877 5875 5874 5874 5874 5873 5872 5869 5869 5870 5871 5871 5873 5878 5876 5874 5873 5873 5872 5873 5874 5875 5875
5879 5880 5880 5880 5880 5881 5873 5873 5878 5878 5878 5875 5875 5875 5874 5872 5871 5870 5867 5866 5866 5866 5865 5863 5863 5863 5862 5860 5860 5859 5859 5858 5858 5863 5865 5866 5865 5862 5863 5863 5863 5865 5866
5874 5872 5872 5871 5870 5871 5869 5866 5865 5866 5865 5865 5863 5862 5861 5860 5859 5857 5857 5858 5856 5855 5853 5852 5852 5851 5851 5849 5849 5849 5847 5847 5845 5846 5851 5853 5854 5853 5852 5852 5852 5853 5853
5866 5865 5864 5863 5862 5860 5857 5856 5854 5854 5854 5852 5851 5850 5850 5848 5847 5845 5845 5844 5843 5841 5840 5839 5838 5837 5835 5834 5833 5832 5832 5831 5831 5830 5832 5835 5839 5840 5837 5839 5839 5840 5841
5855 5853 5851 5849 5848 5846 5844 5842 5841 5840 5838 5837 5837 5837 5836 5835 5834 5832 5831 5831 5830 5828 5825 5823 5822 5821 5819 5817 5816 5816 5815 5814 5813 5812 5814 5816 5820 5822 5822 5823 5823 5826 5826
5842 5839 5837 5835 5833 5831 5829 5829 5827 5827 5825 5825 5824 5824 5822 5821 5820 5818 5817 5817 5815 5812 5811 5808 5805 5803 5800 5798 5798 5797 5796 5794 5794 5792 5794 5795 5798 5799 5801 5802 5803 5806 5810
5829 5827 5825 5823 5821 5820 5817 5815 5814 5813 5812 5810 5809 5809 5808 5806 5805 5803 5802 5801 5799 5795 5792 5789 5787 5783 5778 5776 5776 5776 5774 5771 5769 5768 5771 5772 5773 5776 5777 5779 5782 5784 5790
5816 5814 5812 5810 5809 5807 5805 5803 5801 5799 5797 5796 5796 5793 5793 5792 5790 5789 5787 5785 5783 5778 5775 5770 5767 5763 5758 5754 5753 5751 5750 5748 5744 5742 5745 5748 5748 5750 5750 5753 5756 5762 5765
5804 5801 5798 5795 5793 5791 5789 5786 5785 5784 5782 5780 5780 5779 5778 5777 5775 5772 5770 5769 5767 5762 5757 5752 5746 5742 5738 5733 5731 5729 5727 5723 5720 5719 5720 5721 5720 5722 5724 5726 5730 5733 5744
5792 5789 5786 5782 5779 5776 5773 5771 5770 5769 5768 5766 5766 5764 5764 5763 5761 5759 5756 5752 5749 5745 5740 5734 5728 5721 5716 5713 5710 5708 5706 5702 5702 5701 5700 5700 5699 5699 5698 5698 5701 5707 5714
5780 5777 5773 5768 5763 5759 5757 5755 5755 5754 5754 5753 5753 5752 5751 5749 5748 5744 5740 5737 5733 5729 5724 5718 5713 5707 5702 5698 5693 5691 5689 5686 5685 5684 5683 5681 5680 5678 5677 5676 5675 5677 5684
5770 5767 5761 5754 5746 5741 5741 5740 5741 5740 5740 5740 5741 5740 5738 5736 5734 5731 5728 5723 5719 5716 5710 5704 5698 5692 5687 5683 5679 5675 5673 5670 5668 5669 5668 5664 5662 5659 5656 5655 5654 5654 5657
5759 5754 5748 5740 5733 5728 5726 5727 5728 5729 5729 5729 5728 5728 5727 5724 5721 5719 5716 5713 5709 5705 5698 5690 5683 5677 5674 5669 5666 5662 5660 5658 5656 5654 5650 5645 5640 5635 5631 5629 5628 5629 5632
5752 5746 5740 5733 5727 5722 5718 5717 5717 5718 5717 5718 5717 5717 5716 5714 5711 5708 5706 5704 5699 5695 5688 5682 5675 5667 5660 5654 5651 5649 5646 5644 5642 5639 5633 5629 5621 5612 5607 5603 5602 5602 5607
5746 5741 5735 5730 5724 5719 5714 5712 5711 5710 5710 5709 5708 5707 5706 5705 5702 5699 5696 5693 5690 5686 5681 5674 5667 5659 5652 5646 5642 5636 5634 5631 5628 5625 5619 5611 5602 5591 5583 5577 5577 5579 5585
5740 5736 5732 5728 5722 5718 5714 5710 5708 5707 5705 5704 5703 5701 5699 5696 5693 5691 5687 5684 5680 5676 5670 5664 5658 5652 5646 5641 5636 5631 5624 5621 5618 5614 5607 5595 5584 5573 5565 5559 5557 5560 5567
5737 5733 5729 5726 5721 5716 5711 5708 5705 5702 5700 5697 5695 5693 5691 5690 5686 5683 5679 5675 5671 5666 5661 5655 5650 5645 5641 5635 5630 5625 5619 5612 5606 5602 5595 5583 5573 5567 5558 5551 5550 5551 5556
5734 5731 5728 5723 5718 5714 5710 5706 5703 5701 5697 5694 5691 5687 5684 5682 5679 5675 5672 5667 5663 5658 5653 5649 5644 5638 5634 5629 5623 5619 5612 5605 5597 5592 5586 5577 5568 5561 5554 5549 5547 5547 5552
5732 5728 5724 5720 5715 5711 5707 5703 5700 5697 5693 5690 5688 5684 5679 5676 5672 5667 5663 5659 5655 5651 5645 5641 5637 5633 5628 5623 5617 5610 5603 5598 5592 5584 5577 5571 5565 5558 5554 5550 5546 5546 5548
5727 5723 5719 5715 5711 5706 5703 5700 5696 5692 5689 5686 5682 5678 5674 5670 5665 5659 5654 5650 5647 5643 5639 5634 5629 5625 5620 5615 5610 5604 5598 5593 5587 5580 5572 5566 5560 5556 5551 5549 5547 5544 5545
5723 5719 5715 5711 5707 5703 5700 5696 5692 5688 5685 5681 5677 5672 5667 5663 5658 5652 5646 5642 5638 5633 5629 5626 5622 5617 5612 5608 5603 5598 5592 5586 5580 5575 5569 5561 5555 5551 5548 5545 5540 5538 5538
5719 5716 5712 5708 5704 5700 5696 5692 5687 5683 5679 5674 5670 5666 5661 5656 5651 5645 5639 5632 5627 5623 5619 5614 5610 5606 5602 5599 5595 5590 5586 5580 5575 5569 5564 5558 5554 5548 5543 5539 5533 5530 5531
5716 5712 5708 5703 5700 5696 5691 5686 5681 5676 5672 5667 5663 5659 5654 5649 5643 5638 5632 5626 5620 5615 5609 5604 5599 5594 5590 5586 5583 5580 5576 5572 5566 5562 5559 5554 5548 5544 5539 5536 5531 5525 5522
5712 5708 5703 5698 5694 5689 5685 5681 5675 5670 5664 5659 5654 5649 5644 5639 5634 5628 5622 5617 5612 5606 5600 5594 5589 5584 5579 5575 5572 5569 5566 5562 5558 5552 5550 5548 5543 5538 5535 5530 5528 5524 5522
5706 5702 5698 5694 5689 5684 5678 5673 5667 5661 5655 5649 5643 5638 5632 5626 5620 5613 5607 5602 5596 5591 5586 5582 5577 5572 5567 5563 5560 5557 5554 5552 5549 5546 5540 5538 5538 5534 5530 5527 5523 5522 5520
5703 5698 5693 5687 5681 5675 5668 5663 5656 5650 5643 5637 5631 5624 5618 5612 5605 5598 5592 5585 5579 5574 5569 5565 5560 5557 5554 5550 5546 5543 5541 5538 5536 5534 5531 5528 5527 5527 5526 5523 5519 5519 5517